Flag for Russia Weather past 2 weeks in Novorossiysk, Russia

Now
81 °F

More clouds than sun.


Feels Like: 83 °F
Forecast: 70 / 94 °F
Wind: 1 mph from North

Location: Anapa / Vitiazevo

Current Time: Jul 25, 2014 at 1:54:42 PM

Latest Report: Jul 25, 2014 at 1:30 PM


Visibility: N/A

Pressure: 29.77 "Hg

Humidity: 66%

Dew point: 68 °F

Location of NovorossiyskLocation

Historic Weather in Novorossiysk — Graph

°F

Novorossiysk temperature yesterday

Maximum temperature yesterday: 95 °F (at 4:30 PM)
Minimum temperature yesterday: 68 °F (at 6:00 AM)
Average temperature yesterday: 83 °F

Past Weeks' High & Low Weather Summary

 TemperatureHumidityPressure
High97 °F (Jul 12, 1:00 PM)100% (Jul 22, 5:00 AM)29.86 "Hg (Jul 22, 5:00 AM)
Low63 °F (Jul 18, 6:00 AM)28% (Jul 12, 1:00 PM)29.65 "Hg (Jul 24, 6:30 PM)
Average79 °F68%29.75 "Hg
* Reported Jul 10 12:00 Noon — Jul 25 12:30 PM, Novorossiysk, Weather by CustomWeather, © 2014

Note: Actual official high and low records may vary slightly from our data, if they occured in-between our weather recording intervals... More about our weather records

Advertising

Novorossiysk weather history for previous 24 hours

 ConditionsComfort  
Time TempWeatherWind HumidityBarometerVisibility
12:30 PM
Jul 25
82 °FOvercast.8 mph55%29.74 "HgN/A
12:00 PM81 °FPartly sunny.13 mph58%29.74 "HgN/A
11:30 AM81 °FPartly sunny.13 mph66%29.74 "HgN/A
11:00 AM79 °FPartly sunny.15 mph70%29.71 "HgN/A
10:30 AM79 °FPartly sunny.13 mph70%29.68 "HgN/A
10:00 AM79 °FBroken clouds.13 mph70%29.68 "HgN/A
9:30 AM79 °FBroken clouds.10 mph79%29.68 "HgN/A
9:00 AM81 °FMore clouds than sun.13 mph79%29.65 "HgN/A
8:30 AM79 °FSprinkles. More clouds than sun.8 mph84%29.68 "HgN/A
8:00 AM77 °FOvercast.3 mph83%29.68 "HgN/A
7:30 AM77 °FOvercast.10 mph83%29.65 "HgN/A
6:30 AM77 °FSprinkles. Overcast.10 mph83%29.68 "HgN/A
6:00 AM73 °FPassing clouds.3 mph89%29.68 "HgN/A
5:00 AM75 °FPassing clouds.1 mph83%29.68 "HgN/A
4:00 AM79 °FPartly cloudy.6 mph79%29.68 "HgN/A
3:00 AM79 °FPartly cloudy.6 mph79%29.68 "HgN/A
2:00 AM77 °FPartly cloudy.3 mph79%29.68 "HgN/A
1:00 AM75 °FPartly cloudy.1 mph78%29.68 "HgN/A
12:00 AM77 °FPassing clouds.1 mph74%29.68 "HgN/A
11:30 PM
Jul 24
79 °FPassing clouds.1 mph70%29.68 "HgN/A
11:00 PM77 °FPassing clouds.1 mph74%29.68 "HgN/A
10:30 PM77 °FPassing clouds.3 mph74%29.68 "HgN/A
10:00 PM79 °FPartly sunny.3 mph70%29.68 "HgN/A
9:30 PM81 °FSunny.6 mph66%29.68 "Hg10 mi
9:00 PM82 °FSunny.6 mph66%29.68 "Hg10 mi
8:30 PM84 °FSunny.8 mph62%29.68 "Hg10 mi
8:00 PM86 °FSunny.8 mph59%29.68 "Hg10 mi
7:30 PM88 °FSunny.10 mph55%29.68 "Hg10 mi
7:00 PM88 °FSunny.10 mph52%29.65 "Hg10 mi
6:30 PM91 °FSunny.10 mph41%29.65 "Hg10 mi
6:00 PM93 °FSunny.10 mph41%29.68 "Hg10 mi
5:30 PM93 °FSunny.10 mph41%29.68 "Hg10 mi
5:00 PM95 °FPassing clouds.8 mph34%29.68 "HgN/A
4:30 PM95 °FPassing clouds.8 mph32%29.68 "HgN/A
4:00 PM93 °FSunny.8 mph34%29.68 "Hg10 mi
3:30 PM93 °FPartly sunny.8 mph34%29.68 "HgN/A
3:00 PM93 °FPartly sunny.6 mph34%29.68 "HgN/A
2:30 PM93 °FSunny.10 mph32%29.71 "Hg10 mi
2:00 PM93 °FSunny.10 mph32%29.71 "Hg10 mi
1:30 PM93 °FSunny.10 mph34%29.71 "Hg10 mi
1:00 PM93 °FSunny.10 mph39%29.71 "Hg10 mi
Weather by CustomWeather, © 2014

See weather overviewHow to use our weather pages